Carrington Municipal Airport, ND

12:58 PM CDT on June 25, 2017 (GMT -0500)
Carrington Municipal Airport

Weather History for K46D - May, 2014

Change the Weather History Date:

Friday, May 9, 2014

  Actual Average (KJMS) Record (KJMS)
Temperature  
Mean Temperature 46 °F -  
Max Temperature 59 °F 68 °F 91 °F (1992)
Min Temperature 32 °F 40 °F 18 °F (1945)
Degree Days  
Heating Degree Days 20    
Moisture  
Dew Point 31 °F    
Average Humidity 62    
Maximum Humidity 100    
Minimum Humidity 25    
Precipitation  
Precipitation 0.00 in - - ()
Sea Level Pressure  
Sea Level Pressure 29.75 in    
Wind  
Wind Speed 9 mph (NW)    
Max Wind Speed 17 mph    
Max Gust Speed 24 mph    
Visibility 10 miles    
Events      
Averages and records for this station are not official NWS values.
T = Trace of Precipitation, MM = Missing Value Source: NWS Daily Summary

Daily Weather History Graph

Daily Weather History Graph

Search for Another Location

Airport or City:

Trip Planner

Search our weather history database for the weather conditions in past years. The results will help you decide how hot, cold, wet, or windy it might be!

Date:

Astronomy

May. 09, 2014 Rise Set
Actual Time 6:07 AM CDT 8:59 PM CDT
Civil Twilight 5:32 AM CDT 9:34 PM CDT
Nautical Twilight 4:46 AM CDT 10:20 PM CDT
Astronomical Twilight 3:52 AM CDT 11:15 PM CDT
Moon 3:37 PM CDT (5/9) 3:33 AM CDT (5/9)
Length of Visible Light 16h 02m
Length of Day
14h 51m
Waxing Gibbous, 74% of the Moon is Illuminated
May 9
Waxing Gibbous
May 14
Full
May 21
Last Quarter
May 28
New
Jun 5
First Quarter

Hourly Weather History & Observations

Time (CDT) Temp. Windchill Dew Point Humidity Pressure Visibility Wind Dir Wind Speed Gust Speed Precip Events Conditions
12:15 AM 44.6 °F 38.8 °F 39.2 °F 81% 29.78 in 10.0 mi North 11.5 mph - N/A   Overcast
12:35 AM 42.8 °F 38.6 °F 39.2 °F 87% 29.78 in 10.0 mi NNW 6.9 mph - N/A   Overcast
12:55 AM 41.0 °F 35.2 °F 39.2 °F 93% 29.77 in 10.0 mi NNW 9.2 mph - N/A   Overcast
1:15 AM 41.0 °F 35.2 °F 39.2 °F 93% 29.77 in 10.0 mi North 9.2 mph - N/A   Overcast
1:35 AM 41.0 °F 33.5 °F 39.2 °F 93% 29.77 in 10.0 mi NNE 13.8 mph - N/A   Overcast
1:55 AM 41.0 °F 34.3 °F 37.4 °F 87% 29.77 in 10.0 mi North 11.5 mph - N/A   Overcast
2:15 AM 41.0 °F 35.2 °F 39.2 °F 93% 29.77 in 10.0 mi NW 9.2 mph - N/A   Overcast
2:35 AM 37.4 °F 31.4 °F 37.4 °F 100% 29.76 in 10.0 mi NW 8.1 mph - N/A   Overcast
2:55 AM 37.4 °F 32.1 °F 37.4 °F 100% 29.76 in 10.0 mi NW 6.9 mph - N/A   Overcast
3:15 AM 35.6 °F 29.9 °F 35.6 °F 100% 29.77 in 10.0 mi NW 6.9 mph - N/A   Scattered Clouds
3:35 AM 33.8 °F 27.7 °F 33.8 °F 100% 29.76 in 10.0 mi NW 6.9 mph - N/A   Clear
4:15 AM 32.0 °F 24.8 °F 32.0 °F 100% 29.76 in 10.0 mi NW 8.1 mph - N/A   Clear
4:35 AM 32.0 °F 24.8 °F 32.0 °F 100% 29.75 in 10.0 mi NW 8.1 mph - N/A   Clear
4:55 AM 32.0 °F 24.8 °F 32.0 °F 100% 29.75 in 10.0 mi NW 8.1 mph - N/A   Clear
5:15 AM 32.0 °F 24.8 °F 32.0 °F 100% 29.75 in 10.0 mi NW 8.1 mph - N/A   Clear
5:35 AM 32.0 °F 24.2 °F 32.0 °F 100% 29.75 in 10.0 mi NW 9.2 mph - N/A   Clear
5:55 AM 32.0 °F 24.8 °F 32.0 °F 100% 29.75 in 10.0 mi NW 8.1 mph - N/A   Clear
6:15 AM 32.0 °F 24.8 °F 32.0 °F 100% 29.76 in 10.0 mi NW 8.1 mph - N/A   Clear
6:35 AM 32.0 °F 24.2 °F 32.0 °F 100% 29.76 in 10.0 mi NW 9.2 mph - N/A   Clear
7:15 AM 32.0 °F 24.8 °F 32.0 °F 100% 29.77 in 10.0 mi NW 8.1 mph - N/A   Clear
7:35 AM 33.8 °F 25.8 °F 33.8 °F 100% 29.77 in 10.0 mi NW 10.4 mph - N/A   Clear
7:55 AM 35.6 °F 27.5 °F 32.0 °F 87% 29.77 in 10.0 mi NW 11.5 mph - N/A   Clear
8:15 AM 35.6 °F 27.5 °F 32.0 °F 87% 29.77 in 10.0 mi NW 11.5 mph - N/A   Clear
8:35 AM 37.4 °F 30.3 °F 32.0 °F 81% 29.77 in 10.0 mi NW 10.4 mph - N/A   Clear
8:55 AM 39.2 °F 32.5 °F 32.0 °F 75% 29.78 in 10.0 mi NW 10.4 mph - N/A   Clear
9:15 AM 41.0 °F 34.7 °F 32.0 °F 70% 29.78 in 10.0 mi NW 10.4 mph - N/A   Clear
9:35 AM 41.0 °F 35.2 °F 33.8 °F 76% 29.78 in 10.0 mi NW 9.2 mph - N/A   Clear
9:55 AM 44.6 °F 40.2 °F 32.0 °F 61% 29.77 in 10.0 mi NW 8.1 mph - N/A   Clear
10:15 AM 44.6 °F 38.8 °F 32.0 °F 61% 29.77 in 10.0 mi NW 11.5 mph - N/A   Clear
10:35 AM 46.4 °F 41.1 °F 28.4 °F 50% 29.77 in 10.0 mi NW 11.5 mph 16.1 mph N/A   Clear
10:55 AM 48.2 °F - 26.6 °F 43% 29.76 in 10.0 mi NW 12.7 mph - N/A   Clear
11:15 AM 48.2 °F - 28.4 °F 46% 29.76 in 10.0 mi NNW 10.4 mph 19.6 mph N/A   Clear
11:35 AM 48.2 °F - 26.6 °F 43% 29.75 in 10.0 mi NW 16.1 mph 19.6 mph N/A   Clear
11:55 AM 50.0 °F - 28.4 °F 43% 29.75 in 10.0 mi NNW 15.0 mph 24.2 mph N/A   Clear
12:15 PM 50.0 °F - 28.4 °F 43% 29.75 in 10.0 mi NW 17.3 mph 24.2 mph N/A   Clear
12:35 PM 51.8 °F - 28.4 °F 41% 29.75 in 10.0 mi North 11.5 mph 18.4 mph N/A   Clear
12:55 PM 53.6 °F - 28.4 °F 38% 29.74 in 10.0 mi North 11.5 mph 19.6 mph N/A   Clear
1:15 PM 53.6 °F - 28.4 °F 38% 29.73 in 10.0 mi NNW 16.1 mph 21.9 mph N/A   Clear
1:35 PM 53.6 °F - 26.6 °F 35% 29.73 in 10.0 mi North 11.5 mph 21.9 mph N/A   Clear
1:55 PM 55.4 °F - 28.4 °F 36% 29.73 in 10.0 mi NNW 10.4 mph 21.9 mph N/A   Clear
2:15 PM 55.4 °F - 28.4 °F 36% 29.73 in 10.0 mi NNW 11.5 mph 18.4 mph N/A   Clear
2:35 PM 55.4 °F - 24.8 °F 31% 29.73 in 10.0 mi NW 12.7 mph 20.7 mph N/A   Clear
2:55 PM 57.2 °F - 28.4 °F 33% 29.73 in 10.0 mi NW 10.4 mph 16.1 mph N/A   Clear
3:15 PM 57.2 °F - 26.6 °F 31% 29.73 in 10.0 mi WNW 12.7 mph 17.3 mph N/A   Clear
3:35 PM 57.2 °F - 24.8 °F 29% 29.73 in 10.0 mi NNW 9.2 mph - N/A   Clear
3:55 PM 57.2 °F - 26.6 °F 31% 29.73 in 10.0 mi NW 10.4 mph 17.3 mph N/A   Clear
4:15 PM 57.2 °F - 28.4 °F 33% 29.73 in 10.0 mi NW 5.8 mph 16.1 mph N/A   Clear
4:35 PM 57.2 °F - 26.6 °F 31% 29.72 in 10.0 mi NW 10.4 mph 21.9 mph N/A   Clear
4:55 PM 57.2 °F - 24.8 °F 29% 29.72 in 10.0 mi WNW 8.1 mph - N/A   Clear
5:15 PM 57.2 °F - 23.0 °F 27% 29.72 in 10.0 mi WNW 11.5 mph - N/A   Clear
5:35 PM 57.2 °F - 24.8 °F 29% 29.72 in 10.0 mi West 6.9 mph - N/A   Clear
5:55 PM 59.0 °F - 24.8 °F 27% 29.72 in 10.0 mi WNW 5.8 mph - N/A   Clear
6:15 PM 59.0 °F - 24.8 °F 27% 29.72 in 10.0 mi West 9.2 mph - N/A   Clear
6:35 PM 59.0 °F - 24.8 °F 27% 29.72 in 10.0 mi WNW 10.4 mph - N/A   Clear
6:55 PM 59.0 °F - 23.0 °F 25% 29.72 in 10.0 mi West 3.5 mph - N/A   Clear
7:15 PM 59.0 °F - 26.6 °F 29% 29.72 in 10.0 mi WSW 6.9 mph - N/A   Clear
7:35 PM 57.2 °F - 26.6 °F 31% 29.72 in 10.0 mi West 9.2 mph - N/A   Clear
7:55 PM 57.2 °F - 28.4 °F 33% 29.73 in 10.0 mi West 8.1 mph - N/A   Clear
8:15 PM 57.2 °F - 28.4 °F 33% 29.73 in 10.0 mi WSW 3.5 mph - N/A   Clear
8:35 PM 55.4 °F - 32.0 °F 41% 29.73 in 10.0 mi Calm Calm - N/A   Clear
8:55 PM 53.6 °F - 32.0 °F 44% 29.73 in 10.0 mi SW 3.5 mph - N/A   Clear
9:15 PM 51.8 °F - 30.2 °F 44% 29.73 in 10.0 mi Calm Calm - N/A   Clear
9:35 PM 50.0 °F - 35.6 °F 58% 29.74 in 10.0 mi South 3.5 mph - N/A   Clear
9:55 PM 46.4 °F 44.3 °F 35.6 °F 66% 29.75 in 10.0 mi South 4.6 mph - N/A   Clear
10:15 PM 44.6 °F 39.7 °F 35.6 °F 71% 29.75 in 10.0 mi South 9.2 mph - N/A   Clear
10:35 PM 44.6 °F 39.7 °F 37.4 °F 76% 29.76 in 10.0 mi South 9.2 mph - N/A   Clear
10:55 PM 42.8 °F 38.0 °F 35.6 °F 76% 29.76 in 10.0 mi South 8.1 mph - N/A   Clear
11:15 PM 41.0 °F 35.2 °F 35.6 °F 81% 29.75 in 10.0 mi South 9.2 mph - N/A   Clear
11:35 PM 41.0 °F 34.7 °F 33.8 °F 76% 29.75 in 10.0 mi South 10.4 mph - N/A   Clear
11:55 PM 39.2 °F 33.0 °F 33.8 °F 81% 29.76 in 10.0 mi South 9.2 mph - N/A   Clear